Le nostre stazioni meteo in Italia

Pubblicità
Il mio iltempo24.it
Lecce, Italia (16332): Temperatura & dewpoint: 11.02.2019 14:00:00 - 17.02.2019 14:00:00 (CET)Lecce, Italia (16332): velocità del vento: 11.02.2019 14:00:00 - 17.02.2019 14:00:00 (CET)Lecce, Italia (16332): direzione del vento: 11.02.2019 14:00:00 - 17.02.2019 14:00:00 (CET)Lecce, Italia (16332): reduced air pressure: 11.02.2019 14:00:00 - 17.02.2019 14:00:00 (CET)Lecce, Italia (16332): visibility: 11.02.2019 14:00:00 - 17.02.2019 14:00:00 (CET)
Data & Tempo tt [°C] td [°C] ff [km/h] ff [kn] dd ppp [hPa] vv [km]
17.02.2019 14:00:00 - - - - - - -
17.02.2019 13:00:00 14,4 9,0 18 10 N 1027,5 10
17.02.2019 12:00:00 14,0 9,0 18 10 N - 10
17.02.2019 11:00:00 13,0 9,0 15 8 NNO - 10
17.02.2019 10:00:00 11,8 8,8 18 10 NNO 1028,0 10
17.02.2019 09:00:00 10,0 8,0 16 9 NO - 10
17.02.2019 08:00:00 7,0 7,0 8 4 NNO - 10
17.02.2019 07:00:00 4,0 3,7 5 3 NO 1028,1 10
17.02.2019 06:00:00 4,0 4,0 9 5 O - 10
17.02.2019 05:00:00 5,0 4,0 9 5 NNO - 10
17.02.2019 04:00:00 4,6 4,6 8 4 NO 1028,1 10
17.02.2019 03:00:00 4,0 4,0 5 3 ONO - 10
17.02.2019 02:00:00 5,0 5,0 8 4 NO - 10
17.02.2019 01:00:00 6,0 5,7 11 6 N 1028,0 10
17.02.2019 00:00:00 6,0 6,0 13 7 N - 10
16.02.2019 23:00:00 5,0 5,0 8 4 NO - 10
16.02.2019 22:00:00 6,4 5,2 11 6 N 1028,0 10
16.02.2019 21:00:00 6,0 5,0 9 5 NNO - 10
16.02.2019 20:00:00 7,0 5,0 8 4 NO - 10
16.02.2019 19:00:00 9,4 6,3 5 3 N 1027,8 10
16.02.2019 18:00:00 10,0 6,0 15 8 N - 10
16.02.2019 17:00:00 11,0 5,0 24 13 N - 10
16.02.2019 16:00:00 12,0 5,0 31 17 N 1027,1 10
16.02.2019 15:00:00 12,0 5,0 29 16 N - 10
16.02.2019 14:00:00 12,0 4,0 24 13 N - 10
16.02.2019 13:00:00 12,0 3,5 26 14 N 1028,0 10
16.02.2019 12:00:00 12,0 3,0 24 13 NNE - 10
16.02.2019 11:00:00 11,0 3,0 22 12 NNE - 10
16.02.2019 10:00:00 11,4 3,9 24 13 N 1028,0 10
16.02.2019 09:00:00 10,0 3,0 15 8 NE - 10
16.02.2019 08:00:00 9,0 3,0 15 8 NE - 10
16.02.2019 07:00:00 7,6 2,1 15 8 NNE 1026,5 10
16.02.2019 06:00:00 7,0 2,0 15 8 NNE - 10
16.02.2019 05:00:00 8,0 1,0 13 7 NNE - 10
16.02.2019 04:00:00 7,8 1,0 13 7 NNE 1026,0 10
16.02.2019 03:00:00 8,0 1,0 18 10 NE - 10
16.02.2019 02:00:00 8,0 2,0 9 5 NNE - 10
16.02.2019 01:00:00 8,0 1,8 9 5 NNE 1026,5 10
16.02.2019 00:00:00 9,0 2,0 13 7 NE - 10
15.02.2019 23:00:00 9,0 2,0 13 7 NE - 10
15.02.2019 22:00:00 9,0 1,2 13 7 NE 1025,3 10
15.02.2019 21:00:00 10,0 1,0 18 10 NE - 10
15.02.2019 20:00:00 10,0 1,0 13 7 NE - 10
15.02.2019 19:00:00 9,8 2,4 13 7 NNE 1023,6 10
15.02.2019 18:00:00 10,0 3,0 15 8 NNE - 10
15.02.2019 17:00:00 11,0 3,0 22 12 NNE - 10
15.02.2019 16:00:00 11,4 2,2 31 17 NNE 1023,4 10
15.02.2019 15:00:00 12,0 3,0 29 16 NNE - 10
15.02.2019 14:00:00 12,0 3,0 34 18 NNE - 10
15.02.2019 13:00:00 11,8 2,5 34 18 N 1024,1 10
15.02.2019 12:00:00 12,0 2,0 35 19 NNE - 10
15.02.2019 11:00:00 12,0 3,0 31 17 NNE - 10
15.02.2019 10:00:00 11,8 4,8 31 17 NNE 1024,6 10
15.02.2019 09:00:00 10,0 8,0 15 8 NNO - 10
15.02.2019 08:00:00 9,0 6,0 18 10 N - 10
15.02.2019 07:00:00 6,6 3,6 8 4 N 1025,1 10
15.02.2019 06:00:00 7,0 3,0 11 6 NNO - 10
15.02.2019 05:00:00 9,0 2,0 21 11 NNE - 10
15.02.2019 04:00:00 8,8 2,2 18 10 N 1025,6 10
15.02.2019 03:00:00 9,0 3,0 21 11 NNE - 10
15.02.2019 02:00:00 9,0 3,0 18 10 NNE - 10
15.02.2019 01:00:00 9,4 4,4 15 8 N 1025,8 10
15.02.2019 00:00:00 9,0 6,0 13 7 N - 10
14.02.2019 23:00:00 10,0 8,0 18 10 NNO - 10
14.02.2019 22:00:00 9,8 7,1 24 13 NNO 1025,6 10
14.02.2019 21:00:00 10,0 7,0 21 11 NNO - 10
14.02.2019 20:00:00 10,0 9,0 21 11 NNO - 10
14.02.2019 19:00:00 10,4 7,5 24 13 NNO 1025,8 10
14.02.2019 18:00:00 11,0 7,0 29 16 NNO - 10
14.02.2019 17:00:00 11,0 6,0 22 12 N - 10
14.02.2019 16:00:00 11,8 4,3 28 15 N 1026,5 10
14.02.2019 15:00:00 11,0 4,0 31 17 N - 10
14.02.2019 14:00:00 12,0 5,0 31 17 N - 10
14.02.2019 13:00:00 11,8 3,1 26 14 N 1028,0 10
14.02.2019 12:00:00 12,0 3,0 44 24 N - 10
14.02.2019 11:00:00 11,0 3,0 39 21 N - 10
14.02.2019 10:00:00 10,4 1,8 39 21 N 1027,9 10
14.02.2019 09:00:00 10,0 3,0 34 18 N - 10
14.02.2019 08:00:00 6,0 2,0 15 8 NNO - 10
14.02.2019 07:00:00 5,6 1,5 16 9 NNO 1027,9 10
14.02.2019 06:00:00 6,0 1,0 15 8 NNO - 10
14.02.2019 05:00:00 6,0 1,0 22 12 N - 10
14.02.2019 04:00:00 7,0 0,0 31 17 N 1027,7 10
14.02.2019 03:00:00 7,0 1,0 29 16 N - 10
14.02.2019 02:00:00 7,0 1,0 29 16 N - 10
14.02.2019 01:00:00 6,6 0,9 28 15 N 1027,4 10
14.02.2019 00:00:00 7,0 0,0 26 14 N - 10
13.02.2019 23:00:00 7,0 0,0 22 12 NNE - 10
13.02.2019 22:00:00 6,8 -0,4 24 13 NNE 1026,3 10
13.02.2019 21:00:00 7,0 -1,0 29 16 NNE - 10
13.02.2019 20:00:00 6,0 -1,0 29 16 N - 10
13.02.2019 19:00:00 6,0 -3,1 37 20 N 1025,3 10
13.02.2019 18:00:00 6,0 -2,0 34 18 NNE - 10
13.02.2019 17:00:00 5,0 2,0 37 20 NNE - 10
13.02.2019 16:00:00 7,4 -2,6 37 20 N 1024,4 10
13.02.2019 15:00:00 7,0 -2,0 34 18 N - 10
13.02.2019 14:00:00 6,0 -4,0 44 24 N - 10
13.02.2019 13:00:00 8,0 -1,8 52 28 N 1024,6 10
13.02.2019 12:00:00 9,0 -1,0 50 27 N - 10
13.02.2019 11:00:00 9,0 0,0 44 24 NNE - 10
13.02.2019 10:00:00 8,6 -0,4 41 22 N 1024,7 10
13.02.2019 09:00:00 8,0 -1,0 44 24 N - 10
13.02.2019 08:00:00 7,0 -1,0 31 17 NNE - 10
13.02.2019 07:00:00 7,2 -1,2 37 20 N 1022,9 10
13.02.2019 06:00:00 7,0 -1,0 39 21 N - 10
13.02.2019 05:00:00 7,0 -1,0 37 20 N - 10
13.02.2019 04:00:00 8,0 -0,2 31 17 N 1021,7 10
13.02.2019 03:00:00 8,0 -1,0 31 17 N - 10
13.02.2019 02:00:00 8,0 -1,0 31 17 N - 10
13.02.2019 01:00:00 8,2 -0,8 29 16 N 1021,9 10
13.02.2019 00:00:00 8,0 -1,0 28 15 N - 10
12.02.2019 23:00:00 8,0 0,0 29 16 N - 10
12.02.2019 22:00:00 8,6 0,6 31 17 NNO 1021,1 10
12.02.2019 21:00:00 9,0 1,0 29 16 NNO - 10
12.02.2019 20:00:00 9,0 2,0 39 21 NNO - 10
12.02.2019 19:00:00 8,4 0,6 28 15 NNO 1020,0 10
12.02.2019 18:00:00 8,0 1,0 24 13 NNO - 10
12.02.2019 17:00:00 9,0 2,0 31 17 NNO - 10
12.02.2019 16:00:00 10,0 2,6 34 18 NNO 1017,8 10
12.02.2019 15:00:00 11,0 4,0 35 19 NNO - 10
12.02.2019 14:00:00 11,0 4,0 35 19 NNO - 10
12.02.2019 13:00:00 11,4 4,2 34 18 N 1016,0 10
12.02.2019 12:00:00 10,0 5,0 26 14 N - 10
12.02.2019 11:00:00 11,0 5,0 37 20 N - 10
12.02.2019 10:00:00 10,6 4,7 35 19 NNO 1014,9 8
12.02.2019 09:00:00 8,0 7,0 5 3 O - 10
12.02.2019 08:00:00 6,0 6,0 2 1 - - 10
12.02.2019 07:00:00 6,0 5,7 11 6 ONO 1013,9 10
12.02.2019 06:00:00 7,0 7,0 11 6 ONO - 10
12.02.2019 05:00:00 7,0 7,0 22 12 N - 10
12.02.2019 04:00:00 7,0 6,2 22 12 NO 1011,3 10
12.02.2019 03:00:00 6,0 5,0 15 8 O - 10
12.02.2019 02:00:00 7,0 6,0 22 12 O - 10
12.02.2019 01:00:00 6,8 5,8 16 9 O 1011,4 10
12.02.2019 00:00:00 7,0 5,0 16 9 O - 10
11.02.2019 23:00:00 8,0 6,0 13 7 O - 10
11.02.2019 22:00:00 7,4 6,0 13 7 O 1011,3 10
11.02.2019 21:00:00 7,0 6,0 5 3 OSO - 10
11.02.2019 20:00:00 9,0 8,0 13 7 N - 10
11.02.2019 19:00:00 11,8 4,5 16 9 NNO 1009,3 10
11.02.2019 18:00:00 13,0 6,0 24 13 OSO - 10
11.02.2019 17:00:00 14,0 7,0 31 17 OSO - 10
11.02.2019 16:00:00 14,6 10,0 22 12 OSO 1007,9 10
11.02.2019 15:00:00 16,0 10,0 37 20 SO - 10
11.02.2019 14:00:00 16,0 10,0 26 14 SO - 10

tt = Temperatura
td = dewpoint
ff = velocità del vento
dd = direzione del vento
ppp = reduced air pressure
vv = visibility

Stazioni seguenti

WeatherPro
AMSI
MeteoEarth